EW1647 Weather Reports


time (UTC)temp
C
wind
direction
speed
KPH
gust
KPH
rain 1hr
cm
rain 24hr
cm
rain mn
cm
humidity
%
barometer
mb
20260505101533 12 194 1.6 9.7 0.00 0.00 0.00 89 1014.3
20260505100033 12 200 1.6 8.0 0.00 0.00 0.00 89 1014.2
20260505094527 12 193 3.2 6.4 0.00 0.00 0.00 89 1014.1
20260505093029 12 178 8.0 14.5 0.00 0.00 0.00 89 1014.0
20260505091531 12 211 6.4 17.7 0.00 0.00 0.00 89 1013.9
20260505090025 12 193 4.8 9.7 0.00 0.00 0.00 89 1013.9
20260505084521 12 238 4.8 11.3 0.00 0.00 0.00 89 1013.7
20260505083021 12 190 3.2 9.7 0.00 0.00 0.00 89 1013.7
20260505081522 12 190 3.2 9.7 0.00 0.00 0.00 89 1013.7
20260505080029 12 189 4.8 9.7 0.00 0.00 0.00 88 1013.6
20260505074514 12 198 4.8 14.5 0.00 0.00 0.00 89 1013.5
20260505073015 12 236 3.2 14.5 0.00 0.00 0.00 88 1013.3
20260505071508 12 221 4.8 16.1 0.00 0.00 0.00 88 1013.1
20260505070005 12 231 6.4 12.9 0.00 0.00 0.00 87 1013.0
20260505064504 12 246 6.4 12.9 0.00 0.00 0.00 87 1012.9
20260505063002 12 200 4.8 8.0 0.00 0.00 0.00 86 1012.8
20260505061600 12 188 3.2 9.7 0.00 0.00 0.00 86 1012.6
20260505054602 13 240 0.0 8.0 0.00 0.00 0.00 84 1012.3
20260505053109 13 254 0.0 6.4 0.00 0.00 0.00 83 1012.3
20260505051553 13 254 4.8 11.3 0.00 0.00 0.00 82 1012.2
20260505041610 15 205 9.7 16.1 0.00 0.00 0.00 76 1011.4
20260505040050 16 246 8.0 24.1 0.00 0.00 0.00 74 1011.1
20260505034550 17 259 11.3 22.5 0.00 0.00 0.00 72 1010.9
20260505033050 17 275 1.6 11.3 0.00 0.00 0.00 70 1010.7
20260505031555 18 254 4.8 17.7 0.00 0.00 0.00 68 1010.5
20260505030049 18 263 12.9 22.5 0.00 0.00 0.00 66 1010.4
20260505024549 19 250 8.0 22.5 0.00 0.00 0.00 64 1010.2
20260505023048 20 298 4.8 12.9 0.00 0.00 0.00 63 1010.1
20260505021548 21 285 6.4 17.7 0.00 0.00 0.00 61 1010.1
20260505020045 21 257 8.0 17.7 0.00 0.00 0.00 59 1009.9
20260505014546 22 296 12.9 20.9 0.00 0.00 0.00 56 1010.0
20260505013045 22 227 11.3 25.7 0.00 0.00 0.00 54 1009.9
20260505011544 24 259 9.7 19.3 0.00 0.00 0.00 52 1009.9
20260505010045 25 286 11.3 17.7 0.00 0.00 0.00 51 1010.0
20260505004544 25 219 6.4 14.5 0.00 0.00 0.00 52 1010.0
20260505003042 25 260 8.0 16.1 0.00 0.00 0.00 51 1010.0
20260505001549 25 258 4.8 14.5 0.00 0.00 0.00 52 1010.0
20260505000047 25 318 6.4 14.5 0.00 0.00 0.00 54 1009.9
20260504234543 25 310 8.0 17.7 0.00 0.00 0.00 52 1010.0
20260504233039 25 285 11.3 19.3 0.00 0.00 0.00 52 1009.9
20260504231553 25 284 9.7 17.7 0.00 0.00 0.00 55 1010.1
20260504230035 25 298 8.0 19.3 0.00 0.00 0.00 52 1010.3
20260504224537 25 259 8.0 19.3 0.00 0.00 0.00 52 1010.5
20260504223132 24 274 8.0 17.7 0.00 0.00 0.00 53 1010.5
20260504221531 24 258 11.3 19.3 0.00 0.00 0.00 54 1010.7
20260504220033 24 294 9.7 17.7 0.00 0.00 0.00 55 1010.8
20260504214526 23 273 9.7 17.7 0.00 0.00 0.00 55 1010.9
20260504213022 23 262 9.7 19.3 0.00 0.00 0.00 58 1011.0
20260504211519 22 267 8.0 17.7 0.00 0.00 0.00 59 1011.1
20260504210017 22 267 8.0 19.3 0.00 0.00 0.00 59 1011.1
20260504204516 22 267 9.7 17.7 0.00 0.00 0.00 61 1011.2
20260504203021 22 275 11.3 17.7 0.00 0.00 0.00 60 1011.3
20260504201508 21 267 9.7 17.7 0.00 0.00 0.00 62 1011.1
20260504200008 21 288 8.0 19.3 0.00 0.00 0.00 63 1011.5
20260504194508 21 265 9.7 17.7 0.00 0.00 0.00 62 1011.4
20260504193014 20 243 9.7 19.3 0.00 0.00 0.00 62 1011.5
20260504191503 20 305 6.4 17.7 0.00 0.00 0.00 63 1011.7
20260504190002 20 291 6.4 14.5 0.00 0.00 0.00 64 1011.7
20260504184601 20 298 6.4 12.9 0.00 0.00 0.00 67 1011.8
20260504183056 20 297 6.4 12.9 0.00 0.00 0.00 68 1011.9
20260504181558 19 310 4.8 12.9 0.00 0.00 0.00 68 1012.1
20260504180143 19 265 6.4 14.5 0.00 0.00 0.00 69 1011.9
20260504174550 18 277 6.4 12.9 0.00 0.00 0.00 69 1011.9
20260504173059 18 248 6.4 16.1 0.00 0.00 0.00 69 1011.9
20260504171544 18 286 4.8 12.9 0.00 0.00 0.00 69 1011.9